Regional Weather Roundup
Issued by NWS Upton, NY

Current Version | Previous Version | Graphics & Text | Print | Product List | Glossary Off
Versions: 1 2 3 4 5 6 7 8 9 10 11 12 13 14 15 16 17 18 19 20 21 22 23 24 25 26 27 28

000
ASUS41 KOKX 190105
RWROKX

REGIONAL WEATHER ROUNDUP
NATIONAL WEATHER SERVICE NEW YORK NY
900 PM EDT FRI APR 18 2014

NOTE: "FAIR" INDICATES FEW OR NO CLOUDS BELOW 12,000 FEET WITH NO
SIGNIFICANT WEATHER AND/OR OBSTRUCTIONS TO VISIBILITY.

NYZ071-072-176-178-NJZ106-104-190200-
NEW YORK CITY METRO AREA


CITY           SKY/WX    TMP DP  RH WIND       PRES   REMARKS
CENTRAL PARK   CLOUDY    44  31  60 VRB5      30.33R
LAGUARDIA APRT CLOUDY    43  30  60 S9        30.31R
KENNEDY INTL   CLOUDY    41  33  73 S9        30.33R
NEWARK/LIBERTY CLOUDY    43  33  68 SE5       30.32R
TETERBORO      CLOUDY    45  33  63 SW7       30.30R
$$

NYZ177-179-078>081-190200-
LONG ISLAND NEW YORK

CITY           SKY/WX    TMP DP  RH WIND       PRES   REMARKS
FARMINGDALE    CLOUDY    40  34  79 SW7       30.32R
ISLIP          CLOUDY    41  33  73 SW5       30.31R
SHIRLEY        CLOUDY    40  35  83 SW3       30.32S
WESTHAMPTON    CLOUDY    38  31  76 CALM      30.32S
MONTAUK POINT    N/A     41  35  79 S3        30.32F
$$

NYZ052-065-067-190200-
HUDSON VALLEY

CITY           SKY/WX    TMP DP  RH WIND       PRES   REMARKS
WHITE PLAINS   CLOUDY    40  31  70 CALM      30.29R
NEWBURGH       PTCLDY    43  28  56 VRB5      30.27F
MONTGOMERY     CLOUDY    45  29  53 S5        30.26S
POUGHKEEPSIE   CLOUDY    46  27  47 SE5       30.27F
ALBANY         MOCLDY    47  24  40 S10       30.23F
$$

NJZ001-105-106-008-010-013-015-019>022-104-190200-
NEW JERSEY

CITY           SKY/WX    TMP DP  RH WIND       PRES   REMARKS
NEWARK/LIBERTY CLOUDY    43  33  68 SE5       30.32R
TETERBORO      CLOUDY    45  33  63 SW7       30.30R
CALDWELL       CLOUDY    45  30  55 SW5       30.31R
MORRISTOWN     CLOUDY    45  32  61 S6        30.31R
SOMERVILLE     CLOUDY    44  33  65 SE5       30.29R
LINDEN         FAIR      45  34  65 S5        30.33S
SUSSEX         CLOUDY    49  29  46 CALM      30.28R
ANDOVER          N/A     45  30  55 CALM      30.28R
TRENTON        CLOUDY    45  34  65 S9        30.31R
MILLVILLE      CLOUDY    43  36  76 SE5       30.32S
ATLANTIC CITY  CLOUDY    41  36  82 S6        30.32F
WRIGHTSTOWN    CLOUDY    41  34  76 SE6       30.29S
TOMS RIVER     CLOUDY    39  34  81 CALM      30.32F
BELMAR         CLOUDY    39  30  70 S6        30.32R WCI  35
$$

PAZ047>061-062-071-190200-
EASTERN PENNSYLVANIA

CITY           SKY/WX    TMP DP  RH WIND       PRES   REMARKS
PHILADELPHIA   CLOUDY    51  33  50 S8        30.30S
ALLENTOWN      CLOUDY    50  30  46 S3        30.29R
SCRANTON       CLOUDY    47  29  49 S5        30.25R
$$

CTZ002-004>006-009-010-012-RIZ004-006-007-MAZ004-011-015-190200-
SOUTHERN NEW ENGLAND
 IN CT

CITY           SKY/WX    TMP DP  RH WIND       PRES   REMARKS
BRADLEY INTL   CLOUDY    45  29  53 S7        30.27S
HARTFORD       CLOUDY    44  31  60 S6        30.29S
DANBURY        CLOUDY    41  30  65 SE3       30.29S
WTRBRY/OXFORD  NOT AVBL
BRIDGEPORT     CLOUDY    43  34  70 SW5       30.31R
MERIDEN        CLOUDY    41  30  65 CALM      30.29S
NEW HAVEN      CLOUDY    44  34  67 W3        30.30R
CHESTER        FAIR      39  32  75 CALM      30.29R
GROTON         CLOUDY    40  36  86 S6        30.30F
WILLIMANTIC    CLOUDY    44  31  60 S5        30.28F

 IN RI

CITY           SKY/WX    TMP DP  RH WIND       PRES   REMARKS
PROVIDENCE     CLOUDY    42  34  73 S7        30.30F
BLOCK ISLAND   CLOUDY    39  34  81 SW3       30.30S
WESTERLY       CLOUDY    41  35  79 S3        30.31F

 IN MA

CITY           SKY/WX    TMP DP  RH WIND       PRES   REMARKS
BOSTON         CLOUDY    38  32  79 SE6       30.31F WCI  33
WORCESTER      CLOUDY    41  29  62 E3        30.26R
WESTFIELD      CLOUDY    42  32  67 CALM      30.26F
PROVINCETOWN   CLOUDY    39  36  87 MISG      30.32R
NANTUCKET      CLOUDY    39  34  82 N3        30.30F
$$

ANZ330-335-338-340-345-350-353-355-190200-
COASTAL MARINE OBSERVATIONS


STATION/POSITION TIME  SKY/WX   TEMP    WIND        PRES    VSBY  WAVE
                                AIR SEA DIR/SP/G                  HT/PER
                 (UTC)          (F)     (DEG/KT/KT) (MB)    (MI)  (FT/S)
NY HARB ENTRANCE 0100            40 43   60/  8/ 10 1026.9
4S FIRE IS       0000               44                N/A           5/11
23SW MTP         0100            40 42   CALM  /  4 1026.0          6/11
HUDSON CANYON    0000            41 44   40/  8/ 12 1026.4          8/11
EXECUTION ROCKS  0100            42 42  200/  6/  8   N/A
WESTERN LI SOUND 0100            42     170/  2/  4   N/A           0
CENTRAL LI SOUND 0000            41 42  230/  2/  4   N/A           0
EASTERN LI SOUND NOT AVBL
ROBBINS REEF     0100            42     170/ 12/ 14   N/A
$$


>>>>>>>>>>>>>>>>>>>>>>>>>>>> KEY <<<<<<<<<<<<<<<<<<<<<<<<<<<
>                                                          <
>     SKY/WX - SKY CONDITION/PRESENT WEATHER               <
>     TMP    - TEMPERATURE IN FAHRENHEIT                   <
>     DP     - DEWPOINT IN FAHRENHEIT                      <
>     RH     - RELATIVE HUMIDITY IN PERCENT                <
>     WIND   - DIRECTION AND SPEED IN MPH                  <
>     PRES   - MEAN SEA LEVEL PRESSURE IN INCHES OF HG     <
>     WCI    - WIND CHILL INDEX                            <
>     VSB    - VISIBILITY IN MILES                         <
>     HX     - HEAT INDEX                                  <
>     TC     - TEMPERATURE IN CELSIUS                      <
>     VRB    - VARIABLE WIND DIRECTION                     <
>                                                          <
>>>>>>>>>>>>>>>>>>>>>>>>>>>> KEY <<<<<<<<<<<<<<<<<<<<<<<<<<<





USA.gov is the U.S. government's official web portal to all federal, state and local government web resources and services.